Temp
8 8 8 8 8 9 9 9 10 13 15 18 17 15 16 17 17 20 20 22 21 19 19 19 17 17 17 18 20 22 24 23 21 20 18 17 16 16 15 15 15 14 13 12
8 10 10 8 10 9 10 11 10 10 11 17 16 15 15 16 16 18 20 20 20 21 20 20 18 16 16 17 17 17 17 16 17 17 16 16 15 15 14 14 13 12 11 12
8 9 9 7 9 11 12 13 13 12 13 16 15 16 13 14 16 16 19 20 21 20 20 19 19 17 16 17 17 17 16 15 15 15 15 15 14 14 13 12 12 11 10 10
5 8 6 11 14 14 12 13 13 14 15 16 14 15 15 13 14 14 16 17 19 19 19 19 21 19 16 15 15 15 14 14 14 14 14 14 13 13 12 11 11 10 10 9
5 7 9 11 13 14 14 13 15 15 16 17 17 16 17 15 12 14 14 16 17 19 19 21 21 18 16 15 14 14 13 13 14 13 13 12 12 11 11 10 9 9 8 9
5 5 6 12 15 16 14 10 15 16 16 16 16 13 14 16 16 17 17 17 18 20 20 20 21 18 15 13 13 12 13 13 13 13 12 12 11 10 10 9 8 7 7 8
7 7 8 13 14 15 12 11 15 16 16 15 13 14 16 16 17 17 17 18 19 20 20 20 21 18 15 13 13 13 13 13 13 12 12 11 10 9 9 8 6 6 6 7
7 7 6 13 14 13 13 13 14 14 15 15 15 15 16 16 17 17 17 17 19 18 19 21 21 21 16 14 15 14 13 12 11 11 11 10 10 9 8 7 5 4 3 2
9 8 11 12 14 14 13 13 14 14 14 15 15 15 16 16 15 16 17 16 17 17 17 19 20 19 17 16 16 13 12 11 11 11 10 9 9 8 7 6 4 3 2 1
7 9 11 11 12 14 14 13 14 14 14 14 14 14 14 14 15 15 16 16 17 17 16 16 17 18 19 18 16 13 11 10 10 10 9 9 8 7 6 5 4 3 2 1
8 10 10 11 12 12 12 12 13 13 13 13 13 13 14 14 14 14 15 15 16 15 14 15 17 17 18 19 15 12 11 10 10 9 9 8 8 7 6 5 5 4 3 2
7 10 10 11 12 13 12 12 12 12 12 12 13 13 13 13 13 13 13 15 14 15 15 16 17 17 17 18 16 13 11 10 10 9 9 8 7 6 6 5 5 4 3 2
9 11 10 10 12 11 11 11 12 12 11 12 12 12 12 12 12 12 13 13 13 14 16 16 16 16 15 15 14 13 12 10 9 9 8 7 6 5 4 4 4 4 3 4
11 10 9 9 9 10 10 10 11 11 11 11 11 11 12 12 11 11 11 13 14 14 15 15 14 15 15 15 15 14 13 11 9 8 8 7 6 5 4 3 3 2 3 3
10 9 9 8 8 8 9 8 8 8 9 9 9 9 9 10 11 11 12 13 14 13 14 13 14 15 15 15 13 14 14 10 8 8 7 6 5 5 4 4 3 1 1 1
8 7 7 7 7 7 7 7 7 7 7 7 7 7 8 8 9 9 10 12 8 7 10 11 10 14 15 13 11 12 13 13 8 7 6 5 5 4 4 3 2 1 0 -0
5 4 5 4 4 4 4 5 5 5 5 5 5 6 7 7 7 7 8 8 9 10 12 12 12 15 14 12 10 10 11 11 10 7 5 5 4 4 3 3 2 1 1 -0
4 3 3 4 3 3 4 3 3 4 3 4 4 4 3 3 4 4 4 5 4 4 5 10 12 12 11 11 11 9 10 10 6 6 5 5 4 4 3 2 2 1 0 -0
3 3 3 3 3 3 2 2 2 1 1 1 1 1 1 2 2 3 4 2 2 2 4 8 7 7 8 9 9 8 8 8 5 6 5 4 3 3 3 2 1 1 0 -0
2 3 2 2 2 1 -0 1 0 -0 0 0 1 1 1 1 2 2 2 2 3 4 4 5 5 6 7 7 8 8 7 7 6 6 4 4 3 2 2 2 1 0 0 -0
1 1 1 1 -0 -0 -1 -0 -1 -0 -0 -0 -0 1 0 1 1 1 1 1 2 2 2 3 2 2 4 5 5 6 5 6 6 5 4 3 3 2 2 1 1 0 0 -0
0 0 0 -1 -0 -0 -0 -0 -0 -1 -1 -1 -0 -0 -0 0 0 -0 -0 0 0 0 1 1 1 1 1 2 3 4 4 5 6 4 3 3 2 2 1 1 0 -0 -0 -1
0 -0 -0 -0 -0 -1 -0 -0 -0 -1 -1 -1 -1 -1 -1 -1 -1 -1 -1 0 -0 -1 -1 -1 -0 -0 1 1 2 3 4 5 4 3 3 2 2 1 1 0 -0 -0 -0 -1
1 -0 -0 -1 -0 -2 -0 -0 -1 -1 -1 -1 -1 -1 -1 -1 -1 -1 -2 -2 -2 -1 -1 -1 0 1 1 1 2 3 4 3 3 2 2 1 1 1 0 -0 -1 -0 -0 -1
0 -1 -0 -1 -1 -1 -1 -1 -1 -1 -1 -1 -1 -1 -1 -2 -2 -2 -2 -2 -1 -1 -1 -1 -1 -0 -0 0 1 1 1 1 1 1 0 -0 -0 -1 -1 -1 -1 -1 -0 -0
0 -0 -1 -1 -1 -1 -1 -1 -2 -1 -1 -1 -1 -2 -2 -2 -2 -2 -1 -2 -2 -2 -2 -1 -1 -1 -1 -1 -1 -1 -1 -1 -1 -1 -1 -1 -1 -1 -1 -1 -0 -0 -0 -1
0 -0 -1 -2 -1 -1 -1 -2 -2 -2 -2 -2 -2 -2 -2 -2 -2 -2 -2 -1 -2 -2 -2 -2 -2 -1 -1 -1 -1 -1 -1 -1 -1 -1 -1 -1 -1 -0 -0 -0 -0 -0 -1 -1
Height
707 705 708 703 700 694 690 689 684 659 647 632 641 643 640 633 620 614 606 603 605 608 607 608 615 619 622 625 629 633 638 644 650 656 664 670 679 689 698 705 712 718 724 732
706 690 692 701 687 687 675 673 681 676 666 640 641 640 647 636 627 624 614 611 612 609 610 614 618 623 627 630 635 638 642 647 651 656 660 667 675 685 693 701 710 718 723 727
706 692 693 702 678 664 658 653 659 660 654 641 648 644 649 650 640 631 623 621 618 615 616 615 619 623 628 633 638 643 649 654 657 659 662 666 673 679 688 696 705 713 721 727
724 701 721 662 640 643 650 645 650 649 647 645 654 651 644 651 650 647 640 631 623 622 620 619 620 623 629 634 638 643 649 653 659 660 664 666 671 677 684 692 698 707 716 722
726 705 681 658 643 642 644 649 642 643 640 639 640 645 645 643 657 656 648 631 629 628 629 623 622 625 628 634 638 641 648 651 656 662 663 667 671 676 682 689 699 705 712 720
719 718 709 653 634 632 640 663 636 637 639 634 635 650 648 645 648 640 636 638 636 630 629 624 622 622 626 631 634 637 641 648 654 659 664 669 671 676 683 689 695 702 711 719
702 702 678 644 635 633 654 663 635 634 635 637 642 642 638 634 634 630 634 638 635 633 627 626 624 627 626 628 630 632 638 643 649 657 662 666 673 677 681 689 695 703 712 720
694 692 692 637 632 641 642 638 636 638 638 637 636 636 634 633 630 631 632 628 631 632 629 625 623 621 627 628 627 632 637 643 645 650 660 666 669 676 683 688 695 702 711 720
670 665 647 639 637 632 633 637 635 636 636 635 634 634 633 633 631 630 630 628 626 628 630 624 623 624 623 623 625 629 634 640 647 649 656 663 670 675 680 685 691 699 706 717
667 655 649 650 642 635 632 632 630 631 630 629 630 630 629 628 629 627 627 628 624 625 624 625 625 624 623 619 619 624 630 637 643 648 653 661 668 673 677 682 689 695 703 713
654 648 645 641 639 635 632 630 629 628 629 629 627 624 623 624 625 625 624 623 622 622 622 620 622 624 623 620 621 622 628 636 641 648 652 659 663 667 673 678 679 682 692 698
652 639 640 643 636 632 632 629 628 627 625 625 624 622 621 622 621 619 618 617 618 616 615 617 619 619 619 620 618 621 624 631 636 640 650 655 660 666 674 679 683 687 691 701
640 632 629 627 627 627 629 628 625 624 623 623 623 622 620 617 616 615 615 613 610 611 611 610 611 613 617 619 622 622 622 623 627 635 643 648 656 659 665 676 685 690 692 698
632 630 632 628 633 628 625 621 618 616 616 616 616 615 613 611 609 609 607 606 606 606 605 605 606 607 611 614 616 617 620 621 620 625 634 641 646 652 656 663 673 684 694 697
634 632 633 632 630 632 631 627 623 619 618 614 612 612 610 607 605 602 600 600 599 598 598 599 601 600 604 608 611 612 614 623 624 623 629 636 643 647 653 660 669 674 688 699
634 634 635 637 636 633 632 630 626 622 620 616 614 611 608 606 602 600 597 593 591 591 588 589 591 594 595 599 603 605 608 613 624 626 626 632 639 645 648 656 665 670 676 687
642 642 639 639 638 636 633 629 625 620 617 613 609 607 603 600 596 591 589 588 585 577 574 576 577 581 584 589 593 599 601 606 609 624 629 626 629 637 642 649 656 664 672 679
646 644 642 640 638 635 630 627 622 617 612 607 602 599 596 593 588 584 582 581 578 574 570 566 569 573 577 581 585 590 593 595 602 607 614 624 628 630 637 642 650 658 666 676
643 642 640 637 635 632 628 623 618 612 607 602 596 590 585 579 576 572 572 571 570 568 561 562 563 566 568 572 578 582 586 588 591 598 604 610 618 626 629 635 642 651 657 667
643 640 637 634 631 629 625 619 613 607 600 593 585 579 568 564 562 560 559 556 555 554 555 555 555 555 558 562 567 571 574 577 581 589 595 600 607 615 622 628 634 644 651 660
642 638 634 631 628 624 619 613 608 601 594 588 580 571 565 560 556 553 551 548 546 547 547 548 549 548 549 552 556 558 562 565 569 577 584 589 600 608 614 622 630 636 646 655
640 636 632 629 624 618 613 608 604 598 591 584 577 569 562 557 552 549 546 544 541 541 540 539 538 538 539 542 543 545 549 553 559 567 574 581 589 598 607 616 624 631 640 650
637 634 629 627 622 617 611 606 601 595 588 582 575 569 563 556 551 547 541 537 534 532 530 529 528 528 529 531 532 535 538 541 546 554 564 572 581 590 599 607 618 626 634 646
635 632 627 625 621 615 609 605 600 595 589 582 576 569 563 556 549 544 538 532 528 525 521 518 515 515 516 517 519 522 526 531 539 548 558 567 577 587 597 604 616 624 632 642
633 629 627 624 620 616 611 606 601 595 589 584 577 571 564 558 552 545 538 532 526 521 517 514 511 510 510 510 512 516 521 528 535 544 554 563 573 583 594 606 614 622 633 646
631 629 627 625 621 617 613 608 604 598 592 586 580 574 568 561 554 548 541 535 529 524 520 518 516 514 514 516 518 521 526 533 539 547 555 565 575 584 596 607 615 625 638 647
631 628 626 624 621 617 613 610 606 601 597 592 586 579 573 567 561 554 548 542 537 533 529 526 525 525 525 526 530 533 538 543 549 555 563 572 582 591 598 607 619 630 639 648
Wind_Speed
4 7 8 8 8 7 3 1 3 6 13 8 9 9 14 13 17 16 15 12 8 7 7 8 9 15 19 18 17 21 25 27 31 33 35 37 38 37 38 40 40 42 41 40
5 11 12 8 15 13 11 9 12 12 14 7 10 9 11 14 15 15 14 14 9 5 8 7 8 13 17 15 15 13 15 16 24 30 33 35 37 37 38 37 36 36 37 42
3 5 5 7 15 15 8 8 11 11 9 7 11 5 4 12 10 16 11 11 13 6 3 7 9 18 16 16 15 13 13 15 22 24 28 33 36 40 38 39 39 37 35 36
4 3 4 8 8 6 14 11 15 14 13 7 5 12 3 2 10 19 19 18 15 10 4 5 12 15 19 20 19 17 18 21 18 24 25 31 36 36 37 40 42 38 38 40
2 3 9 14 10 8 6 8 10 13 12 9 5 4 8 12 5 10 11 11 15 16 15 6 14 18 21 20 20 20 20 21 25 22 22 24 28 32 34 35 33 34 37 43
1 2 5 6 8 4 4 5 8 6 3 3 5 2 4 10 5 6 4 12 12 25 10 12 14 26 24 20 21 20 26 25 26 28 28 24 28 30 29 33 32 35 37 41
9 5 8 7 14 15 6 5 6 4 5 5 3 4 4 3 2 4 5 6 10 20 19 8 14 11 17 20 20 24 26 30 30 30 30 33 31 30 35 31 34 36 39 41
4 6 8 12 2 0 2 5 4 4 4 4 2 6 6 5 4 4 7 8 2 10 12 22 8 20 16 16 23 24 26 27 30 33 28 29 32 30 29 31 33 33 32 31
7 6 3 5 2 3 6 4 3 3 4 5 3 3 3 3 5 6 5 7 10 7 9 18 12 3 11 25 23 28 28 28 26 28 29 30 30 29 30 32 32 29 31 28
2 5 7 10 12 7 14 7 5 7 6 6 6 7 6 6 5 6 4 5 10 9 6 5 17 20 18 9 31 31 27 26 28 28 28 28 28 30 31 30 29 29 27 26
8 8 7 6 9 6 8 8 8 6 5 6 9 10 7 5 7 7 7 8 10 6 6 8 14 16 19 15 25 26 27 26 26 25 30 28 28 30 31 32 38 38 36 41
8 13 11 7 3 3 7 7 6 7 7 8 8 7 6 6 6 6 7 11 8 14 9 12 18 17 14 12 15 25 23 24 26 28 28 28 26 24 23 25 32 32 30 33
14 14 16 12 5 7 5 7 7 7 7 7 5 6 7 7 6 7 9 10 8 11 21 19 12 8 3 6 19 17 24 26 28 29 30 28 28 28 22 21 26 28 32 35
7 5 4 9 5 8 11 14 15 14 13 13 12 8 9 9 8 8 9 18 23 19 18 19 17 17 15 16 15 12 22 29 32 33 32 30 31 31 31 29 27 28 32 40
5 5 5 7 10 10 11 13 16 16 15 16 14 14 14 15 13 12 20 27 30 29 26 25 26 33 30 26 18 8 11 19 23 28 30 30 30 30 28 28 27 28 30 31
8 8 9 8 9 10 11 13 15 16 16 17 17 18 18 20 20 24 25 23 10 9 25 29 27 30 36 28 19 12 15 21 23 19 25 27 27 28 27 28 28 30 33 35
7 9 10 10 11 13 15 15 16 19 19 20 21 19 21 16 16 18 24 27 29 29 32 30 32 38 41 30 22 17 18 24 30 25 20 28 31 30 30 30 30 32 32 38
8 8 10 11 13 14 16 17 18 19 19 21 23 19 17 17 19 19 21 24 25 23 30 31 29 29 25 22 24 21 19 23 29 33 33 28 27 31 31 31 31 32 32 36
12 11 12 14 13 13 15 16 16 18 21 23 18 20 20 21 22 25 27 17 13 13 24 29 21 21 23 24 23 20 20 24 28 30 32 34 31 30 31 33 33 34 37 40
12 11 11 12 14 12 13 15 19 15 21 21 18 15 18 17 22 21 22 17 23 20 19 17 17 24 28 29 29 28 27 26 27 29 31 33 33 32 33 35 36 36 39 41
10 11 11 11 12 13 12 15 14 13 19 20 13 13 11 11 11 11 8 9 18 23 28 28 27 26 25 27 27 30 29 26 28 31 31 33 32 32 33 35 36 38 39 39
7 8 9 9 12 13 15 18 17 16 15 14 17 15 10 9 8 9 15 13 18 19 23 23 24 27 28 28 28 30 28 29 30 32 34 35 34 33 33 35 35 36 38 38
9 9 8 9 11 12 17 14 16 17 13 13 12 12 9 10 8 6 8 12 18 20 20 22 25 27 29 31 29 29 30 31 34 35 35 35 36 36 37 37 36 38 39 38
7 9 8 13 14 7 11 14 18 17 17 16 18 18 15 6 10 13 13 14 15 19 21 23 26 31 33 29 28 29 31 32 33 34 34 35 35 35 35 36 35 36 37 38
8 8 9 7 7 7 9 16 15 15 16 15 18 20 21 20 11 15 14 12 9 6 6 6 12 16 18 19 21 24 27 30 33 35 36 35 36 37 37 36 36 37 36 35
6 4 6 9 8 10 11 12 6 12 14 9 15 19 20 22 22 19 17 17 17 18 17 16 17 21 21 22 24 25 28 32 33 34 36 36 37 37 37 38 38 38 36 36
9 7 6 5 9 12 12 11 7 6 14 15 11 19 20 22 24 23 22 20 19 20 21 21 22 23 25 27 27 29 30 31 34 36 36 36 36 37 39 39 38 37 36 36
Wind_Direction
242 203 242 275 285 286 252 272 234 357 262 149 34 356 360 350 356 10 22 31 65 73 82 85 83 86 95 108 139 171 187 190 182 182 178 174 172 171 172 173 174 173 170 170
284 255 221 246 251 236 249 247 266 267 284 262 96 46 352 352 352 342 7 5 5 74 104 96 107 111 111 106 98 124 131 142 159 165 162 165 163 161 162 164 166 166 166 170
276 27 318 263 235 221 209 207 228 265 239 354 350 341 22 325 332 330 349 357 354 13 145 122 127 135 138 146 147 146 150 154 160 159 157 160 161 159 159 160 163 164 164 163
256 348 268 251 300 229 209 226 224 247 269 261 207 288 199 302 360 331 330 332 343 338 347 157 161 146 153 154 155 160 169 171 172 163 162 160 160 161 161 163 164 163 164 168
191 224 286 295 274 248 221 246 234 240 240 252 160 231 296 134 197 250 288 301 296 303 292 197 179 159 152 158 166 170 173 174 179 174 162 162 160 162 160 158 158 156 165 165
196 228 243 243 312 82 128 289 225 216 357 283 126 162 217 131 169 310 296 327 287 307 320 257 205 166 154 164 171 179 183 182 183 178 172 168 161 157 157 156 152 156 157 167
219 240 269 269 259 292 238 239 6 108 146 102 133 186 251 320 155 329 275 249 327 309 279 301 253 178 168 170 190 192 189 185 183 183 178 174 166 161 155 153 152 157 162 167
188 218 254 287 102 33 246 317 353 12 30 49 354 215 195 202 277 270 281 296 258 306 256 256 283 211 172 190 204 186 187 180 178 178 175 171 164 162 161 153 151 150 150 152
197 215 280 328 63 296 275 240 296 326 325 315 303 266 238 265 296 261 275 295 321 300 324 329 358 49 225 199 192 183 177 178 180 171 170 170 167 163 159 158 155 155 156 159
319 256 287 315 299 287 299 287 302 293 280 271 269 268 242 222 252 274 266 285 284 283 305 342 346 341 333 265 188 177 174 177 175 170 167 170 172 170 166 165 162 162 160 156
267 258 258 248 237 242 283 317 296 303 341 329 326 305 265 238 230 227 237 258 278 275 282 294 313 316 330 337 184 174 178 176 173 173 169 170 174 175 177 181 176 171 176 169
272 287 288 285 257 260 259 274 286 279 278 275 275 274 304 307 291 263 232 230 243 277 263 282 294 297 328 300 193 187 175 172 172 171 179 177 168 171 187 189 189 184 180 180
257 270 273 283 335 0 339 328 323 309 293 288 266 278 282 273 265 276 298 277 239 236 256 279 262 280 329 8 9 205 185 178 174 174 178 175 174 168 154 175 192 188 178 183
327 6 351 1 0 345 343 338 334 329 329 324 321 304 264 249 259 257 254 259 267 259 255 269 277 273 268 280 296 346 213 193 180 181 182 180 177 177 171 163 164 171 186 185
306 17 15 358 360 351 337 331 324 317 317 310 312 310 311 311 297 267 247 250 253 247 244 248 251 265 268 270 270 260 203 211 202 185 184 184 183 177 173 170 167 153 156 172
6 12 3 351 329 322 320 312 304 300 300 296 294 292 290 288 287 290 299 274 224 228 228 233 240 252 260 258 249 211 199 200 210 204 180 175 178 176 171 169 164 161 161 160
7 345 341 342 339 327 317 310 303 298 296 290 288 287 284 279 279 278 281 282 281 254 243 236 240 256 255 259 238 198 188 193 188 198 202 186 177 180 177 172 171 170 168 164
1 344 332 326 317 309 303 299 295 291 288 288 286 283 278 273 268 271 271 274 278 288 271 244 240 235 234 223 215 207 195 193 187 188 187 191 191 180 178 174 172 169 163 164
346 331 320 316 312 308 305 300 298 296 292 287 282 275 268 265 264 261 260 250 255 260 265 262 240 225 219 218 224 227 214 205 187 191 192 186 182 185 179 174 171 171 164 163
328 322 321 314 315 303 297 303 305 300 298 294 287 288 270 255 252 249 244 243 246 242 249 255 255 244 239 239 237 236 236 215 193 194 188 184 182 181 180 175 170 169 166 166
319 321 317 311 308 302 297 305 307 309 310 308 306 300 295 294 282 253 246 247 250 253 259 261 257 254 247 241 233 230 228 215 199 191 186 180 181 181 177 172 170 168 167 166
311 317 320 317 321 322 323 321 311 312 316 318 321 315 308 301 283 266 253 252 265 264 262 258 250 245 242 236 226 224 220 213 200 187 182 179 176 174 172 167 166 167 164 160
330 332 329 334 330 327 327 329 334 329 332 330 325 328 321 299 293 293 284 276 257 260 258 253 249 245 241 234 228 223 216 202 187 181 178 174 172 169 165 161 161 160 156 157
324 339 329 318 321 334 345 337 335 334 335 342 347 345 338 331 314 324 307 296 281 269 259 254 248 246 241 228 219 209 194 180 171 168 166 163 159 159 157 151 154 152 150 152
329 327 329 338 343 347 334 337 333 341 340 347 358 357 355 352 339 335 1 10 19 40 65 113 166 165 151 143 145 149 150 150 151 150 149 148 146 143 142 146 143 141 145 154
327 331 326 332 342 342 336 337 340 342 345 347 358 1 2 4 4 5 13 27 40 50 55 65 81 92 99 106 112 118 123 128 131 133 134 134 134 134 137 136 138 145 154 160
327 322 327 325 345 347 347 344 341 347 351 348 349 360 6 11 11 15 21 26 39 51 58 63 73 84 93 98 101 106 111 115 120 122 125 128 132 133 133 138 146 153 157 161